"2010-05-03 00:00:00",78220,7.221,337.7,4.627,0.714,10.99,102.8446,6.56,7.949,42.55,0,110.2,13.39,7.34,299.7
"2010-05-03 00:00:30",78221,7.181,336.3,3.884,0.929,10.9,102.8446,6.56,7.941,42.2,0,110.2,13.39,7.34,298.3
"2010-05-03 00:01:00",78222,6.261,328.6,5.5,1.253,7.848,102.8446,6.56,7.731,43.13,0,110.2,13.38,7.34,290.6
"2010-05-03 00:01:30",78223,6.011,328.8,7.19,1.256,7.794,102.8446,6.56,7.782,44.14,0,110.2,13.38,7.34,290.8
"2010-05-03 00:02:00",78224,4.933,328.8,1.736,0.2,5.743,102.8446,6.56,7.726,44.67,0,110.1,13.42,7.34,290.8
"2010-05-03 00:02:30",78225,5.211,326.4,2.133,0.17,6.1,102.8446,6.56,7.634,44.96,0,110.2,13.42,7.34,288.4
"2010-05-03 00:03:00",78226,7.04,333.7,6.562,1.133,10.17,102.8446,6.56,7.936,45.64,0,110.2,13.39,7.34,295.7
"2010-05-03 00:03:30",78227,7.02,335.9,6.772,1.005,10.62,102.8446,6.56,7.913,45.63,0,110.2,13.39,7.34,297.9
"2010-05-03 00:04:00",78228,7.051,336.5,5.367,0.608,10.55,102.8446,6.56,7.932,46.45,0,110.1,13.39,7.34,298.5
"2010-05-03 00:04:30",78229,5.486,330.2,5.542,1.542,8.76,102.8409,6.551,7.827,46.66,0,110.1,13.39,7.33,292.2
"2010-05-03 00:05:00",78230,4.963,326.9,4.359,0.824,6.013,102.8186,6.494,7.619,46.23,0,110.1,13.39,7.27,288.9
"2010-05-03 00:05:30",78231,5.02,334.9,2.02,0.219,5.88,102.8107,6.474,7.595,46.22,0,110.1,13.42,7.25,296.9
"2010-05-03 00:06:00",78232,5.861,335,5.246,1.297,8.46,102.8107,6.474,7.831,46.85,0,110.1,13.39,7.25,297.0
"2010-05-03 00:06:30",78233,6.534,337.3,6.028,1.011,10.61,102.8096,6.471,7.859,47.47,0,110.1,13.39,7.25,299.3
"2010-05-03 00:07:00",78234,6.787,336.9,4.519,0.882,10.66,102.7977,6.441,7.882,47.84,0,110.1,13.39,7.22,298.9
"2010-05-03 00:07:30",78235,6.683,334,7.591,1.15,9.53,102.78,6.395,7.817,48.4,0,110.1,13.39,7.17,296.0
"2010-05-03 00:08:00",78236,6.285,333.2,7.268,1.243,7.346,102.7832,6.404,7.578,48.35,0,110.1,13.39,7.18,295.2
"2010-05-03 00:08:30",78237,4.835,337.1,4.169,0.238,5.872,102.7853,6.409,7.53,48.33,0,110.1,13.42,7.18,299.1
"2010-05-03 00:09:00",78238,5.08,344.1,4.916,1.127,7.139,102.7665,6.361,7.596,48.15,0,110.1,13.39,7.14,306.1
"2010-05-03 00:09:30",78239,6.489,341.6,7.951,0.988,10.41,102.7627,6.351,7.739,48.55,0,110.1,13.39,7.13,303.6
"2010-05-03 00:10:00",78240,6.8,347.4,7.153,0.977,10.81,102.7665,6.361,7.774,49.15,0,110.1,13.39,7.14,309.4
"2010-05-03 00:10:30",78241,6.289,340.5,8.73,1.228,9.41,102.768,6.365,7.728,49.34,0,110.1,13.39,7.14,302.5
"2010-05-03 00:11:00",78242,5.988,338.2,5.878,0.958,7.556,102.7469,6.311,7.607,49.32,0,110.1,13.38,7.09,300.2
"2010-05-03 00:11:30",78243,6.001,328.5,1.37,0.171,5.492,102.7436,6.302,7.413,49.93,0,110.1,13.42,7.08,290.5
"2010-05-03 00:12:00",78244,5.746,332,7.418,0.974,7,102.7436,6.302,7.54,50.65,0,110.1,13.39,7.08,294.0
"2010-05-03 00:12:30",78245,6.67,339,7.095,1.147,9.85,102.7323,6.274,7.634,50.3,0,110.1,13.39,7.05,301.0
"2010-05-03 00:13:00",78246,7.113,346.2,4.49,1.064,10.2,102.7103,6.217,7.68,50.06,0,110.1,13.39,6.99,308.2
"2010-05-03 00:13:30",78247,6.653,347.3,5.448,1.21,9.56,102.71,6.217,7.602,50.56,0,110.1,13.39,6.99,309.3
"2010-05-03 00:14:00",78248,6.039,339.3,5.921,1.329,7.813,102.71,6.217,7.509,51,0,110.1,13.39,6.99,301.3
"2010-05-03 00:14:30",78249,4.455,335.5,3.012,0.289,5.448,102.7097,6.216,7.305,51.15,0,110.1,13.43,6.99,297.5
"2010-05-03 00:15:00",78250,5.263,348.2,8.33,1.194,7.659,102.7049,6.204,7.416,51.09,0,110.1,13.4,6.98,310.2
"2010-05-03 00:15:30",78251,5.369,347.9,8.45,1.3,8.46,102.7001,6.191,7.472,51.11,0,110.1,13.4,6.97,309.9
"2010-05-03 00:16:00",78252,5.557,346.5,6.435,1.171,8.62,102.6883,6.161,7.531,51.54,0,110.1,13.41,6.93,308.5
"2010-05-03 00:16:30",78253,6.587,350.2,6.794,1.158,9.61,102.6815,6.144,7.518,52.33,0,110.1,13.41,6.92,312.2
"2010-05-03 00:17:00",78254,6.556,348,6.564,1.221,9.21,102.6767,6.132,7.518,53.09,0,110.1,13.41,6.91,310.0
"2010-05-03 00:17:30",78255,5.263,341.1,8.37,1.206,7.221,102.677,6.132,7.374,53.56,0,110.1,13.41,6.91,303.1
"2010-05-03 00:18:00",78256,5.25,342.4,8.18,1.199,7.696,102.6761,6.13,7.392,53.6,0,110.1,13.41,6.90,304.4
"2010-05-03 00:18:30",78257,4.904,343.2,5.946,0.993,6.659,102.6761,6.13,7.388,53.55,0,110.1,13.41,6.90,305.2
"2010-05-03 00:19:00",78258,5.49,343,8.71,1.347,7.673,102.6761,6.13,7.343,53.81,0,110.1,13.41,6.90,305.0
"2010-05-03 00:19:30",78259,6.24,349.2,5.487,1.01,9.93,102.6761,6.13,7.492,54.47,0,110.1,13.41,6.90,311.2
"2010-05-03 00:20:00",78260,5.51,339.6,7.614,1.12,8.51,102.6761,6.13,7.484,54.95,0,110.1,13.41,6.90,301.6
"2010-05-03 00:20:30",78261,5.433,337.2,8.41,1.134,7.978,102.6761,6.13,7.408,55,0,110.1,13.41,6.90,299.2
"2010-05-03 00:21:00",78262,5.431,337.4,6.075,1.36,7.703,102.6761,6.13,7.386,54.86,0,110.1,13.41,6.90,299.4
"2010-05-03 00:21:30",78263,5.196,336.6,7.501,0.972,7.422,102.6761,6.13,7.381,54.83,0,110.1,13.41,6.90,298.6
"2010-05-03 00:22:00",78264,5.49,336.4,5.26,1.073,6.653,102.6761,6.13,7.234,54.64,0,110.1,13.41,6.90,298.4
"2010-05-03 00:22:30",78265,6.507,340.7,5.81,1.378,9.07,102.6761,6.13,7.478,54.84,0,110.1,13.41,6.90,302.7
"2010-05-03 00:23:00",78266,6.735,343.3,6.026,1.225,9.52,102.6761,6.13,7.487,54.76,0,110.1,13.41,6.90,305.3
"2010-05-03 00:23:30",78267,5.307,336.4,5.403,1.233,7.595,102.6761,6.13,7.465,54.74,0,110.1,13.41,6.90,298.4
"2010-05-03 00:24:00",78268,6.234,344.2,5.704,1.121,8.9,102.6761,6.13,7.426,54.53,0,110.1,13.41,6.90,306.2
"2010-05-03 00:24:30",78269,4.855,337.8,4.421,0.876,6.41,102.6761,6.13,7.342,54.24,0,110.1,13.41,6.90,299.8
"2010-05-03 00:25:00",78270,5.371,340.6,4.878,1.159,7.056,102.6761,6.13,7.268,54.07,0,110.1,13.4,6.90,302.6
"2010-05-03 00:25:30",78271,6.202,346.1,6.098,1.267,8.22,102.6761,6.13,7.434,54.07,0,110.1,13.4,6.90,308.1
"2010-05-03 00:26:00",78272,6.473,349.2,5.853,1.216,9.51,102.6761,6.13,7.494,53.85,0,110,13.4,6.90,311.2
"2010-05-03 00:26:30",78273,6.333,344.1,7.65,1.327,8.38,102.6761,6.13,7.51,53.81,0,110,13.4,6.90,306.1
"2010-05-03 00:27:00",78274,7.393,346.4,4.957,1.011,9.54,102.6761,6.13,7.439,53.75,0,110,13.4,6.90,308.4
"2010-05-03 00:27:30",78275,6.312,338.6,7.137,1.305,7.654,102.6798,6.14,7.373,53.48,0,110.1,13.4,6.91,300.6
"2010-05-03 00:28:00",78276,4.739,337.4,2.358,0.184,5.471,102.6953,6.179,7.316,53.26,0,110.1,13.44,6.95,299.4
"2010-05-03 00:28:30",78277,5.33,344.4,6.134,1.092,6.958,102.7052,6.204,7.429,53.29,0,110.1,13.4,6.98,306.4
"2010-05-03 00:29:00",78278,6.922,352.8,6.183,1.13,9.4,102.71,6.217,7.496,53.06,0,110.1,13.4,6.99,314.8
"2010-05-03 00:29:30",78279,6.942,351.2,5.523,1.251,8.55,102.71,6.217,7.42,52.55,0,110.1,13.41,6.99,313.2
"2010-05-03 00:30:00",78280,6.895,351.3,7.423,1.367,8.5,102.71,6.217,7.514,53.4,0,110.1,13.41,6.99,313.3
"2010-05-03 00:30:30",78281,7.498,345.8,6.287,1.296,9.09,102.7103,6.217,7.556,53.93,0,110.1,13.41,6.99,307.8
"2010-05-03 00:31:00",78282,5.329,341.6,3.374,0.198,5.808,102.71,6.217,7.327,53.71,0,110,13.44,6.99,303.6
"2010-05-03 00:31:30",78283,6.157,349.2,5.883,1.507,7.517,102.7109,6.219,7.482,53.68,0,110,13.41,6.99,311.2
"2010-05-03 00:32:00",78284,6.931,353.4,6.135,1.198,9.3,102.7168,6.234,7.533,53.44,0,110.1,13.41,7.01,315.4
"2010-05-03 00:32:30",78285,5.714,349.1,6.784,1.291,7.839,102.7326,6.274,7.589,53.01,0,110.1,13.41,7.05,311.1
"2010-05-03 00:33:00",78286,6.127,355.2,7.006,1.364,9.2,102.7431,6.301,7.587,53.16,0,110,13.41,7.08,317.2
"2010-05-03 00:33:30",78287,6.881,350.4,7.084,1.221,8.83,102.7451,6.306,7.554,53.17,0,110.1,13.41,7.08,312.4
"2010-05-03 00:34:00",78288,5.488,347.9,8.52,1.012,7.116,102.7454,6.307,7.495,52.34,0,110.1,13.41,7.08,309.9
"2010-05-03 00:34:30",78289,5.143,346.7,3.746,0.695,6.008,102.7451,6.306,7.5,52.15,0,110.1,13.41,7.08,308.7
"2010-05-03 00:35:00",78290,7.113,355.7,5.853,1.458,8.69,102.7454,6.307,7.473,51.4,0,110.1,13.41,7.08,317.7
"2010-05-03 00:35:30",78291,7.497,355.7,5.434,1.105,10.01,102.7442,6.304,7.606,50.68,0,110.1,13.41,7.08,317.7
"2010-05-03 00:36:00",78292,7.124,352.6,7.384,1.093,9.49,102.745,6.306,7.669,51.12,0,110.1,13.41,7.08,314.6
"2010-05-03 00:36:30",78293,7.595,349.7,6.599,1.113,9.21,102.7558,6.334,7.603,51.19,0,110.1,13.41,7.11,311.7
"2010-05-03 00:37:00",78294,6.441,337.6,5.246,1.228,7.179,102.7705,6.371,7.492,51.67,0,110.1,13.41,7.15,299.6
"2010-05-03 00:37:30",78295,5.194,344.1,6.293,1.054,6.699,102.7756,6.384,7.573,52.28,0,110.1,13.41,7.16,306.1
"2010-05-03 00:38:00",78296,5.096,354.6,4.507,1.974,7.083,102.7778,6.39,7.472,51.73,0,110.1,13.41,7.16,316.6
"2010-05-03 00:38:30",78297,5.495,3.526,7.245,1.882,9.24,102.7792,6.394,7.712,51,0,110.1,13.41,7.17,325.5
"2010-05-03 00:39:00",78298,7.861,352.9,6.575,1.265,9.03,102.7764,6.386,7.703,50.96,0,110.1,13.41,7.16,314.9
"2010-05-03 00:39:30",78299,7,348.7,5.688,1.317,8.95,102.7767,6.387,7.677,51.34,0,110.1,13.41,7.16,310.7
"2010-05-03 00:40:00",78300,6.778,352.7,6.317,1.31,9.31,102.7759,6.385,7.62,50.43,0,110,13.41,7.16,314.7
"2010-05-03 00:40:30",78301,5.888,355.1,5.921,1.25,8.75,102.7725,6.376,7.667,50.26,0,110.1,13.41,7.15,317.1
"2010-05-03 00:41:00",78302,4.926,346.7,10.02,1.337,6.598,102.7748,6.382,7.508,50.27,0,110.1,13.41,7.16,308.7
"2010-05-03 00:41:30",78303,4.045,345.1,5.981,0.59,5.79,102.7694,6.368,7.453,51.33,0,110.1,13.4,7.14,307.1
"2010-05-03 00:42:00",78304,5.546,355.8,8.08,1.209,9.26,102.7644,6.355,7.668,52.16,0,110.1,13.4,7.13,317.8
"2010-05-03 00:42:30",78305,4.803,6.135,6.838,1.189,9.91,102.7502,6.319,7.661,50.7,0,110.1,13.4,7.09,328.1
"2010-05-03 00:43:00",78306,3.354,13.38,8.71,1.3,8.47,102.7503,6.32,7.577,50.01,0,110.1,13.4,7.09,335.4
"2010-05-03 00:43:30",78307,3.528,6.578,5.161,1.479,7.982,102.7511,6.322,7.607,49.79,0,110.1,13.4,7.10,328.6
"2010-05-03 00:44:00",78308,3.351,12.62,4.848,1.232,6.784,102.7529,6.326,7.5,49.29,0,110.1,13.4,7.10,334.6
"2010-05-03 00:44:30",78309,4.968,23.62,6.37,1.154,7.57,102.757,6.337,7.475,49.25,0,110.1,13.4,7.11,345.6
"2010-05-03 00:45:00",78310,5.04,23.29,5.746,1.027,7.646,102.7578,6.339,7.53,49.13,0,110.1,13.4,7.11,345.3
"2010-05-03 00:45:30",78311,6.002,28.93,6.405,1.176,10.07,102.7593,6.343,7.624,48.93,0,110.1,13.4,7.12,350.9
"2010-05-03 00:46:00",78312,6.436,30.69,6.555,1.2,10.57,102.7585,6.341,7.695,48.57,0,110.1,13.41,7.11,352.7
"2010-05-03 00:46:30",78313,5.596,27.89,7.012,1.391,9.28,102.7506,6.32,7.592,48.05,0,110.1,13.41,7.09,349.9
"2010-05-03 00:47:00",78314,4.5,22.8,8.21,1.375,8.79,102.7416,6.297,7.512,47.79,0,110.1,13.41,7.07,344.8
"2010-05-03 00:47:30",78315,2.841,11.09,6.681,0.77,5.966,102.7361,6.283,7.396,47.58,0,110.1,13.45,7.06,333.1
"2010-05-03 00:48:00",78316,3.356,14.35,9.57,1.561,6.616,102.7376,6.287,7.359,47.64,0,110.1,13.41,7.06,336.4
"2010-05-03 00:48:30",78317,2.972,13.5,5.825,0.777,7.42,102.7382,6.289,7.499,48.09,0,110,13.41,7.06,335.5
"2010-05-03 00:49:00",78318,3.538,10.88,7.147,1.222,8.64,102.7419,6.298,7.527,48.14,0,110.1,13.41,7.07,332.9
"2010-05-03 00:49:30",78319,3.736,7.489,9.15,1.159,7.661,102.7431,6.301,7.558,48.4,0,110.1,13.41,7.08,329.5
"2010-05-03 00:50:00",78320,4.239,8.82,7.665,1.319,9.08,102.7431,6.301,7.591,48.8,0,110.1,13.41,7.08,330.8
"2010-05-03 00:50:30",78321,3.895,8.87,9.11,1.208,8.64,102.7443,6.304,7.514,48.9,0,110.1,13.41,7.08,330.9
"2010-05-03 00:51:00",78322,3.423,354.8,2.853,0.425,5.708,102.744,6.303,7.336,48.98,0,110.1,13.42,7.08,316.8
"2010-05-03 00:51:30",78323,3.39,359.3,5.017,1.32,6.874,102.7358,6.282,7.474,49.27,0,110.1,13.42,7.06,321.3
"2010-05-03 00:52:00",78324,3.185,2.67,5.451,1.372,6.583,102.7177,6.236,7.403,49.92,0,110.1,13.42,7.01,324.7
"2010-05-03 00:52:30",78325,3.84,354.9,4.639,0.994,5.982,102.7112,6.22,7.363,49.79,0,110.1,13.45,6.99,316.9
"2010-05-03 00:53:00",78326,7.338,357.6,6.534,1.189,9.61,102.7109,6.219,7.589,50.48,0,110.1,13.42,6.99,319.6
"2010-05-03 00:53:30",78327,6.908,3.485,5.23,1.291,10.12,102.7109,6.219,7.551,50.41,0,110.1,13.42,6.99,325.5
"2010-05-03 00:54:00",78328,5.77,7.479,7.736,1.097,9.96,102.7101,6.217,7.501,49.98,0,110,13.42,6.99,329.5
"2010-05-03 00:54:30",78329,4.538,3.577,13,0.933,7.234,102.703,6.199,7.418,50.18,0,110.1,13.42,6.97,325.6
"2010-05-03 00:55:00",78330,4.016,3.049,9.7,1.015,5.792,102.683,6.148,7.283,50.47,0,110,13.42,6.92,325.0
"2010-05-03 00:55:30",78331,3.612,0.131,7.01,1.346,5.34,102.677,6.132,7.239,50.76,0,110,13.45,6.91,322.1
"2010-05-03 00:56:00",78332,2.958,10.91,8.22,1.852,6.445,102.677,6.132,7.392,51.07,0,110,13.42,6.91,332.9
"2010-05-03 00:56:30",78333,4.745,14.86,10.67,1.448,9.13,102.677,6.132,7.473,51.36,0,110,13.42,6.91,336.9
"2010-05-03 00:57:00",78334,6.882,22.6,5.548,1.135,10.02,102.677,6.132,7.458,51.63,0,110,13.42,6.91,344.6
"2010-05-03 00:57:30",78335,6.843,28.09,5.406,1.167,9.39,102.677,6.132,7.454,52.17,0,110,13.41,6.91,350.1
"2010-05-03 00:58:00",78336,5.773,25.12,6.969,1.301,8.02,102.677,6.132,7.301,52.15,0,110,13.41,6.91,347.1
"2010-05-03 00:58:30",78337,4.773,18.38,1.589,0.231,5.482,102.677,6.132,7.201,52.17,0,110,13.45,6.91,340.4
"2010-05-03 00:59:00",78338,4.283,19.02,5.21,0.901,6.673,102.677,6.132,7.279,52.4,0,110,13.41,6.91,341.0
"2010-05-03 00:59:30",78339,6.399,26.77,5.854,1.04,9.59,102.6799,6.14,7.445,52.56,0,110,13.41,6.91,348.8
"2010-05-03 01:00:00",78340,6.473,27.19,6.084,1.253,9.2,102.6951,6.179,7.407,52.35,0,110,13.41,6.95,349.2
"2010-05-03 01:00:30",78341,6.373,27.97,6.965,1.049,9.77,102.7073,6.21,7.431,52.34,0,110,13.41,6.98,350.0
"2010-05-03 01:01:00",78342,2.965,13.56,7.47,1.238,8.19,102.7109,6.219,7.435,52.43,0,110,13.41,6.99,335.6
"2010-05-03 01:01:30",78343,4.393,18.98,3.21,0.727,5.351,102.7109,6.219,7.227,52.26,0,110,13.45,6.99,341.0
"2010-05-03 01:02:00",78344,4.999,18.75,6.326,1.124,5.396,102.7109,6.219,7.259,52.34,0,110,13.45,6.99,340.8
"2010-05-03 01:02:30",78345,5.406,22.62,10.07,1.944,8.58,102.7109,6.219,7.518,52.64,0,110,13.42,6.99,344.6
"2010-05-03 01:03:00",78346,5.827,25.34,6.464,1.536,9.57,102.7112,6.22,7.505,52.79,0,110,13.42,6.99,347.3
"2010-05-03 01:03:30",78347,4.375,19.45,7.193,1.242,9.79,102.722,6.247,7.498,52.83,0,110,13.42,7.02,341.5
"2010-05-03 01:04:00",78348,4.582,23.39,6.958,1.218,8.28,102.7389,6.29,7.474,52.84,0,110,13.42,7.06,345.4
"2010-05-03 01:04:30",78349,5.134,24.7,1.751,0.226,5.328,102.7445,6.305,7.277,52.72,0,110,13.45,7.08,346.7
"2010-05-03 01:05:00",78350,5,27.29,8.82,0.833,6.017,102.7448,6.306,7.39,53.21,0,110,13.42,7.08,349.3
"2010-05-03 01:05:30",78351,6.897,46.63,8.7,1.813,9.59,102.7448,6.306,7.551,53.87,0,110,13.42,7.08,8.6
"2010-05-03 01:06:00",78352,7.24,42.35,8.98,1.363,10.13,102.7448,6.306,7.566,54.07,0,110,13.42,7.08,4.3
"2010-05-03 01:06:30",78353,5.648,31.52,9.23,1.401,10.59,102.7448,6.306,7.644,54.52,0,110,13.42,7.08,353.5
"2010-05-03 01:07:00",78354,7.418,39.19,7.921,1.414,9.69,102.7448,6.306,7.591,54.58,0,110,13.42,7.08,1.2
"2010-05-03 01:07:30",78355,7.552,35.08,5.108,1.472,6.997,102.7423,6.299,7.441,54.5,0,110,13.42,7.07,357.1
"2010-05-03 01:08:00",78356,4.885,25.83,6.614,1.194,6.355,102.7186,6.238,7.352,54.56,0,110,13.42,7.01,347.8
"2010-05-03 01:08:30",78357,5.652,33.13,6.86,1.131,9.11,102.7109,6.219,7.57,54.76,0,110,13.42,6.99,355.1
"2010-05-03 01:09:00",78358,5.312,24.35,8.65,1.284,8.99,102.7107,6.218,7.479,54.49,0,110,13.42,6.99,346.4
"2010-05-03 01:09:30",78359,6.639,37.11,6.818,1.355,9.97,102.7059,6.206,7.504,55.75,0,110,13.42,6.98,359.1
"2010-05-03 01:10:00",78360,6.139,39.6,6.502,1.11,9.7,102.6833,6.148,7.526,57.03,0,110,13.42,6.92,1.6
"2010-05-03 01:10:30",78361,4.109,32.31,6.758,1.298,6.996,102.677,6.132,7.241,57.23,0,110,13.42,6.91,354.3
"2010-05-03 01:11:00",78362,4.468,58.54,7.492,0.918,6.711,102.6717,6.119,7.271,57.19,0,110,13.42,6.89,20.5
"2010-05-03 01:11:30",78363,5.49,77.15,7.431,1.309,9.08,102.6525,6.07,7.454,57.72,0,110,13.42,6.84,39.2
"2010-05-03 01:12:00",78364,5.731,83.7,7.664,1.191,8.96,102.6432,6.046,7.421,58.12,0,110,13.42,6.82,45.7
"2010-05-03 01:12:30",78365,5.787,76.71,9.55,1.168,9.39,102.6432,6.046,7.341,58.23,0,110,13.42,6.82,38.7
"2010-05-03 01:13:00",78366,6.415,66.04,7.411,0.981,9.5,102.6237,5.996,7.402,58.49,0,110,13.42,6.77,28.0
"2010-05-03 01:13:30",78367,6.271,69.18,6.919,1.235,8.56,102.6096,5.96,7.218,58.23,0,110,13.42,6.73,31.2
"2010-05-03 01:14:00",78368,5.451,65.52,6.933,1.271,7.677,102.6067,5.953,7.228,58.25,0,110,13.42,6.73,27.5
"2010-05-03 01:14:30",78369,5.526,62.83,6.525,1.285,7.33,102.5864,5.901,7.278,58.49,0,110,13.42,6.67,24.8
"2010-05-03 01:15:00",78370,5.652,64.86,6.344,1.32,8.34,102.5771,5.877,7.269,58.68,0,110,13.42,6.65,26.9
"2010-05-03 01:15:30",78371,6.409,70.26,5.352,0.936,10.43,102.5585,5.83,7.258,58.76,0,110,13.41,6.60,32.3
"2010-05-03 01:16:00",78372,5.851,64.37,5.989,1.216,8.92,102.547,5.8,7.214,58.79,0,110,13.42,6.57,26.4
"2010-05-03 01:16:30",78373,4.69,61.54,5.512,1.367,7.335,102.5391,5.78,7.124,58.76,0,110,13.42,6.55,23.5
"2010-05-03 01:17:00",78374,4.432,60.09,4.26,0.861,6.123,102.5191,5.729,6.942,58.78,0,110,13.42,6.50,22.1
"2010-05-03 01:17:30",78375,5.846,64.38,7.744,1.293,8.16,102.5169,5.723,7.082,59.14,0,110,13.42,6.50,26.4
"2010-05-03 01:18:00",78376,5.608,61.92,7.824,1.289,9.36,102.4995,5.679,7.134,58.95,0,110,13.42,6.45,23.9
"2010-05-03 01:18:30",78377,6.191,61.05,5.185,0.887,10.29,102.4917,5.659,7.063,58.33,0,110,13.42,6.43,23.0
"2010-05-03 01:19:00",78378,5.626,67.27,5.504,1.264,9.96,102.4883,5.65,7.076,58.24,0,110,13.42,6.42,29.3
"2010-05-03 01:19:30",78379,5.101,57.66,6.865,1.291,9.19,102.4715,5.607,6.996,58.06,0,110,13.43,6.38,19.7
"2010-05-03 01:20:00",78380,3.942,49.61,5.986,1.071,7.392,102.4647,5.59,6.8,57.74,0,110,13.43,6.36,11.6
"2010-05-03 01:20:30",78381,3.5,48.47,6.957,0.905,6.735,102.4637,5.587,6.818,57.81,0,110,13.43,6.36,10.5
"2010-05-03 01:21:00",78382,5.335,68.02,6.286,1.236,9.7,102.4481,5.548,6.937,57.92,0,110,13.44,6.32,30.0
"2010-05-03 01:21:30",78383,4.736,63.48,6.845,1.39,8.93,102.4352,5.515,6.903,57.92,0,110,13.44,6.29,25.5
"2010-05-03 01:22:00",78384,6.131,65.39,5.044,0.945,10.25,102.4363,5.518,6.888,57.93,0,110,13.44,6.29,27.4
"2010-05-03 01:22:30",78385,5.483,64.55,6.177,1.279,8.66,102.4375,5.521,6.886,58,0,110,13.44,6.29,26.6
"2010-05-03 01:23:00",78386,5.199,66.36,5.437,1.307,7.953,102.4319,5.506,6.676,58.24,0,110,13.44,6.28,28.4
"2010-05-03 01:23:30",78387,5.376,67.23,6.779,1.289,7.649,102.415,5.463,6.743,58.62,0,110,13.44,6.23,29.2
"2010-05-03 01:24:00",78388,5.397,69.66,5.345,1.335,8.05,102.4068,5.442,6.754,58.85,0,110,13.44,6.21,31.7
"2010-05-03 01:24:30",78389,5.335,65.85,7.714,1.191,7.71,102.4068,5.442,6.639,58.95,0,110,13.44,6.21,27.8
"2010-05-03 01:25:00",78390,6.516,74.42,6.099,1.125,9.87,102.4056,5.439,6.831,59.29,0,110,13.44,6.21,36.4
"2010-05-03 01:25:30",78391,6.425,74.06,6.51,1.226,9.56,102.3904,5.4,6.784,59.25,0,110,13.44,6.17,36.1
"2010-05-03 01:26:00",78392,5.884,69.6,7.677,1.369,7.717,102.3729,5.355,6.639,59.06,0,110,13.44,6.13,31.6
"2010-05-03 01:26:30",78393,5.304,64.42,5.986,0.874,6.417,102.3729,5.355,6.639,59.04,0,109.9,13.44,6.13,26.4
"2010-05-03 01:27:00",78394,6.616,70.99,6.431,1.09,9.52,102.3726,5.355,6.635,59.08,0,109.9,13.44,6.13,33.0
"2010-05-03 01:27:30",78395,5.154,66.11,6.375,1.214,8.76,102.3593,5.321,6.664,59.17,0,109.9,13.44,6.09,28.1
"2010-05-03 01:28:00",78396,6.187,70.82,4.916,1.041,9.72,102.3449,5.284,6.644,59.22,0,109.9,13.44,6.05,32.8
"2010-05-03 01:28:30",78397,5.85,66.57,7.153,1.194,9.17,102.339,5.269,6.68,59.07,0,110,13.44,6.04,28.6
"2010-05-03 01:29:00",78398,4.599,58.55,4.783,1.122,6.638,102.3387,5.268,6.403,58.79,0,109.9,13.44,6.04,20.5
"2010-05-03 01:29:30",78399,4.876,62.03,6.77,1.302,7.881,102.3319,5.251,6.522,58.91,0,109.9,13.44,6.02,24.0
"2010-05-03 01:30:00",78400,4.978,62.79,6.818,1.269,7.745,102.315,5.208,6.499,58.94,0,109.9,13.44,5.98,24.8
"2010-05-03 01:30:30",78401,5.17,62.71,5.395,1.171,8.17,102.3051,5.182,6.456,58.87,0,109.9,13.44,5.95,24.7
"2010-05-03 01:31:00",78402,6.168,67.08,4.813,0.676,10.67,102.3054,5.183,6.571,59,0,109.9,13.44,5.95,29.1
"2010-05-03 01:31:30",78403,5.397,64.13,7.214,1.203,8.96,102.3074,5.188,6.558,59.03,0,109.9,13.44,5.96,26.1
"2010-05-03 01:32:00",78404,4.531,60.01,6.73,1.128,7.488,102.3065,5.186,6.483,58.94,0,109.9,13.44,5.96,22.0
"2010-05-03 01:32:30",78405,5.073,62.02,6.713,1.235,7.83,102.3026,5.176,6.444,58.89,0,109.9,13.44,5.95,24.0
"2010-05-03 01:33:00",78406,4.747,60.46,5.176,1.265,7.759,102.2942,5.155,6.496,58.96,0,109.9,13.44,5.92,22.5
"2010-05-03 01:33:30",78407,4.697,58.31,5.567,0.99,7.266,102.281,5.121,6.369,58.77,0,109.9,13.44,5.89,20.3
"2010-05-03 01:34:00",78408,6.316,67.17,4.844,0.897,10.27,102.2804,5.119,6.544,58.92,0,109.9,13.44,5.89,29.2
"2010-05-03 01:34:30",78409,5.967,67.34,5.718,1.185,9.82,102.2819,5.123,6.496,58.83,0,109.9,13.44,5.89,29.3
"2010-05-03 01:35:00",78410,5.69,63.89,6.184,1.317,8.76,102.2862,5.134,6.391,58.72,0,109.9,13.44,5.90,25.9
"2010-05-03 01:35:30",78411,5.239,58.55,5.864,1.197,8.01,102.2905,5.145,6.294,58.81,0,109.9,13.45,5.92,20.5
"2010-05-03 01:36:00",78412,5.065,63.82,6.382,1.207,8.08,102.2934,5.153,6.412,58.93,0,109.9,13.45,5.92,25.8
"2010-05-03 01:36:30",78413,5.013,61.03,6.453,1.133,7.756,102.2949,5.156,6.369,58.81,0,109.9,13.45,5.93,23.0
"2010-05-03 01:37:00",78414,5.968,67.31,5.744,1.137,9.91,102.2938,5.153,6.486,58.95,0,109.9,13.45,5.92,29.3
"2010-05-03 01:37:30",78415,5.839,67.48,5.719,1.101,9.67,102.2908,5.146,6.448,58.92,0,109.9,13.45,5.92,29.5
"2010-05-03 01:38:00",78416,5.291,66.85,6.854,1.225,8.67,102.2803,5.119,6.415,58.84,0,109.9,13.45,5.89,28.8
"2010-05-03 01:38:30",78417,4.373,62.4,5.165,0.868,6.853,102.2699,5.092,6.327,58.68,0,109.9,13.45,5.86,24.4
"2010-05-03 01:39:00",78418,4.716,63.92,6.295,1.073,6.961,102.2702,5.093,6.217,58.53,0,109.9,13.45,5.86,25.9
"2010-05-03 01:39:30",78419,5.076,64.6,6.642,1.209,8.52,102.272,5.098,6.399,58.62,0,109.9,13.45,5.87,26.6
"2010-05-03 01:40:00",78420,6.515,71.4,4.404,0.533,10.41,102.272,5.098,6.368,58.56,0,109.9,13.46,5.87,33.4
"2010-05-03 01:40:30",78421,5.801,70.99,5.386,1.149,10.14,102.272,5.098,6.428,58.67,0,109.9,13.46,5.87,33.0
"2010-05-03 01:41:00",78422,5.43,68.45,6.404,1.271,8.97,102.272,5.098,6.366,58.64,0,109.9,13.46,5.87,30.4
"2010-05-03 01:41:30",78423,4.567,65.15,5.695,1.083,7.319,102.272,5.098,6.285,58.55,0,109.9,13.46,5.87,27.2
"2010-05-03 01:42:00",78424,4.581,65.25,4.796,1.133,6.89,102.272,5.098,6.187,58.48,0,109.9,13.46,5.87,27.2
"2010-05-03 01:42:30",78425,4.662,67.36,6.674,1.175,7.932,102.2711,5.096,6.275,58.57,0,109.9,13.46,5.87,29.4
"2010-05-03 01:43:00",78426,5.62,70.41,6.146,1.219,10.05,102.2686,5.089,6.392,58.67,0,109.9,13.46,5.86,32.4
"2010-05-03 01:43:30",78427,5.85,74.58,6.182,1.065,9.85,102.2623,5.073,6.362,58.62,0,109.9,13.46,5.84,36.6
"2010-05-03 01:44:00",78428,4.908,72.85,5.918,1.271,8.44,102.2581,5.062,6.256,58.52,0,109.9,13.46,5.83,34.8
"2010-05-03 01:44:30",78429,4.783,75.18,6.802,1.281,7.648,102.2525,5.048,6.18,58.45,0,109.9,13.46,5.82,37.2
"2010-05-03 01:45:00",78430,4.416,75.05,5.911,1.194,7.856,102.2417,5.02,6.248,58.52,0,109.9,13.46,5.79,37.1
"2010-05-03 01:45:30",78431,3.598,70.85,4.389,0.455,6.512,102.2383,5.012,6.233,58.53,0,109.9,13.5,5.78,32.8
"2010-05-03 01:46:00",78432,4.975,80.3,7.055,1.182,9.01,102.238,5.011,6.196,58.53,0,109.9,13.47,5.78,42.3
"2010-05-03 01:46:30",78433,5.538,87,4.745,0.723,11.01,102.238,5.011,6.409,58.79,0,109.9,13.46,5.78,49.0
"2010-05-03 01:47:00",78434,5.058,84.5,7.139,1.158,9.3,102.238,5.011,6.263,58.64,0,109.9,13.46,5.78,46.5
"2010-05-03 01:47:30",78435,3.739,77.31,6.071,1.047,6.329,102.238,5.011,6.12,58.51,0,109.9,13.46,5.78,39.3
"2010-05-03 01:48:00",78436,3.905,79,6.128,1.133,7.411,102.238,5.011,6.215,58.64,0,109.9,13.46,5.78,41.0
"2010-05-03 01:48:30",78437,3.434,74.49,4.734,0.924,6.428,102.238,5.011,6.143,58.57,0,109.9,13.46,5.78,36.5
"2010-05-03 01:49:00",78438,4.434,79.45,5.763,1.328,8.63,102.238,5.011,6.228,58.65,0,109.9,13.46,5.78,41.4
"2010-05-03 01:49:30",78439,4.724,82.9,6.054,1.191,9.45,102.238,5.011,6.285,58.74,0,109.9,13.46,5.78,44.9
"2010-05-03 01:50:00",78440,5.278,88.8,5.578,0.893,10.45,102.2375,5.01,6.321,58.78,0,109.9,13.46,5.78,50.8
"2010-05-03 01:50:30",78441,3.697,80.7,5.581,1.066,7.481,102.2355,5.005,6.237,58.73,0,109.9,13.46,5.77,42.7
"2010-05-03 01:51:00",78442,3.732,81.6,5.25,1.119,7.373,102.2321,4.996,6.215,58.73,0,109.9,13.46,5.77,43.6
"2010-05-03 01:51:30",78443,3.171,78.15,3.962,0.832,6.579,102.2281,4.986,6.176,58.74,0,109.9,13.46,5.76,40.2